Jonesboro, AR

2:07 AM CDT on April 24, 2017 (GMT -0500)
Jonesboro Municipal

Weather History for KJBR - May, 2012

Change the Weather History Date:

Tuesday, May 8, 2012

  Actual Average Record
Temperature  
Mean Temperature 71 °F 67 °F  
Max Temperature 77 °F 77 °F 91 °F (1916)
Min Temperature 65 °F 56 °F 34 °F (1917)
Degree Days  
Heating Degree Days 0 2  
Month to date heating degree days 0 18  
Since 1 July heating degree days 2688 3633  
Cooling Degree Days 6 4  
Month to date cooling degree days 99 23  
Year to date cooling degree days 286 70  
Growing Degree Days 20 (Base 50)    
Moisture  
Dew Point 58 °F    
Average Humidity 67    
Maximum Humidity 87    
Minimum Humidity 46    
Precipitation  
Precipitation 0.00 in 0.19 in 2.03 in (1918)
Month to date precipitation 0.88 1.59  
Year to date precipitation 12.03 18.26  
Snow  
Snow 0.00 in 0.00 in - ()
Month to date snowfall 0.0 0.0  
Since 1 July snowfall 5.5 4.8  
Snow Depth 0.00 in    
Sea Level Pressure  
Sea Level Pressure 29.95 in    
Wind  
Wind Speed 7 mph (North)    
Max Wind Speed 22 mph    
Max Gust Speed 33 mph    
Visibility 10 miles    
Events      
T = Trace of Precipitation, MM = Missing Value Source: NWS Daily Summary

Daily Weather History Graph

Daily Weather History Graph

Search for Another Location

Airport or City:

Trip Planner

Search our weather history database for the weather conditions in past years. The results will help you decide how hot, cold, wet, or windy it might be!

Date:

Astronomy

May. 08, 2012 Rise Set
Actual Time 6:02 AM CDT 7:55 PM CDT
Civil Twilight 5:34 AM CDT 8:23 PM CDT
Nautical Twilight 5:00 AM CDT 8:57 PM CDT
Astronomical Twilight 4:24 AM CDT 9:34 PM CDT
Moon 11:03 PM CDT (5/8) 8:13 AM CDT (5/8)
Length of Visible Light 14h 49m
Length of Day
13h 53m
Waning Gibbous, 90% of the Moon is Illuminated
May 8
Waning Gibbous
May 12
Last Quarter
May 20
New
May 28
First Quarter
Jun 4
Full

Hourly Weather History & Observations

Time (CDT) Temp. Dew Point Humidity Pressure Visibility Wind Dir Wind Speed Gust Speed Precip Events Conditions
12:53 AM 70.0 °F 64.9 °F 84% 29.92 in 10.0 mi NE 10.4 mph 24.2 mph 0.10 in   Overcast
1:53 AM 68.0 °F 64.0 °F 87% 29.91 in 10.0 mi NE 9.2 mph 24.2 mph N/A   Partly Cloudy
2:53 AM 68.0 °F 64.0 °F 87% 29.92 in 10.0 mi Calm Calm - N/A   Overcast
3:53 AM 66.9 °F 63.0 °F 87% 29.92 in 10.0 mi Variable 3.5 mph - N/A   Overcast
4:53 AM 66.0 °F 61.0 °F 84% 29.92 in 10.0 mi North 9.2 mph 25.3 mph N/A   Scattered Clouds
5:53 AM 64.9 °F 61.0 °F 87% 29.94 in 10.0 mi North 6.9 mph 25.3 mph N/A   Mostly Cloudy
6:53 AM 66.0 °F 61.0 °F 84% 29.96 in 10.0 mi North 13.8 mph 27.6 mph N/A   Overcast
7:53 AM 66.9 °F 62.1 °F 84% 29.96 in 10.0 mi North 11.5 mph 27.6 mph N/A   Mostly Cloudy
8:53 AM 70.0 °F 62.1 °F 76% 29.98 in 10.0 mi North 6.9 mph 24.2 mph N/A   Clear
9:53 AM 71.1 °F 57.9 °F 63% 29.98 in 10.0 mi NE 11.5 mph 19.6 mph N/A   Clear
10:53 AM 73.9 °F 57.9 °F 57% 29.98 in 10.0 mi East 17.3 mph - N/A   Clear
11:53 AM 73.9 °F 57.0 °F 55% 29.98 in 10.0 mi North - - N/A   Partly Cloudy
12:53 PM 73.9 °F 55.9 °F 53% 29.99 in 10.0 mi Variable 4.6 mph - N/A   Clear
1:53 PM 73.9 °F 55.9 °F 53% 29.97 in 10.0 mi North 8.1 mph - N/A   Mostly Cloudy
2:53 PM 75.9 °F 55.9 °F 50% 29.96 in 10.0 mi Variable 5.8 mph - N/A   Partly Cloudy
3:53 PM 77.0 °F 55.9 °F 48% 29.93 in 10.0 mi Variable 5.8 mph - N/A   Partly Cloudy
4:53 PM 75.0 °F 54.0 °F 48% 29.92 in 10.0 mi North 5.8 mph - N/A   Clear
5:53 PM 73.9 °F 53.1 °F 48% 29.91 in 10.0 mi North 6.9 mph - N/A   Clear
6:53 PM 73.0 °F 55.0 °F 53% 29.92 in 10.0 mi North 4.6 mph - N/A   Clear
7:53 PM 71.1 °F 55.9 °F 59% 29.94 in 10.0 mi North 3.5 mph - N/A   Clear
8:53 PM 69.1 °F 55.0 °F 61% 29.95 in 10.0 mi North 4.6 mph - N/A   Scattered Clouds
9:53 PM 69.1 °F 52.0 °F 54% 29.97 in 10.0 mi North 8.1 mph - N/A   Overcast
10:53 PM 66.9 °F 52.0 °F 59% 29.97 in 10.0 mi North 6.9 mph - N/A   Partly Cloudy
11:53 PM 66.9 °F 51.1 °F 57% 29.97 in 10.0 mi North 4.6 mph - N/A   Partly Cloudy